Location: Balaclava NSW 2575, Australia
(34.4510°S, 150.4953°E)
Time: 00:24:43
(UTC+10:00)

Tiros 1 despin weight - All Passes

Search period start: 23 June 2021 00:00
Search period end: 03 July 2021 00:00
Orbit: 594 x 641 km, 48.2° (Epoch: 21 June)

Date Brightness Start Highest point End Pass type
(mag) Time Alt. Az. Time Alt. Az. Time Alt. Az.
23 Jun - 13:53:51 10° NE 13:54:57 11° NE 13:56:03 10° ENE daylight
23 Jun - 15:31:12 10° NW 15:35:51 76° NE 15:40:35 10° SE daylight
23 Jun - 17:13:50 10° W 17:17:48 26° SSW 17:21:49 10° SE visible
23 Jun - 18:57:53 10° SW 19:00:39 15° S 19:03:24 10° SSE visible
23 Jun - 20:39:56 10° SSW 20:43:36 22° SSE 20:47:14 10° ESE visible
23 Jun - 22:21:03 10° SW 22:25:48 74° SE 22:30:26 10° ENE night (unlit)
24 Jun - 00:03:51 10° W 00:06:54 17° NW 00:09:56 10° N night (unlit)
24 Jun - 14:07:11 10° N 14:10:53 24° NE 14:14:38 10° ESE daylight
24 Jun - 15:47:34 10° WNW 15:52:10 57° SSW 15:56:51 10° SE daylight
24 Jun - 17:31:07 10° WSW 17:34:31 19° SSW 17:37:57 10° SSE visible
24 Jun - 19:14:40 10° SSW 19:17:32 16° S 19:20:23 10° SE visible
24 Jun - 20:56:03 10° SW 21:00:16 31° SSE 21:04:27 10° E night (unlit)
24 Jun - 22:37:25 10° WSW 22:42:03 56° NW 22:46:35 10° NE night (unlit)
25 Jun - 14:22:30 10° NNW 14:26:57 49° NE 14:31:31 10° ESE daylight
25 Jun - 16:04:24 10° W 16:08:39 33° SSW 16:12:59 10° SE daylight
25 Jun - 17:48:26 10° SW 17:51:21 16° S 17:54:16 10° SSE visible
25 Jun - 19:31:03 10° SSW 19:34:22 18° SSE 19:37:41 10° ESE visible
25 Jun - 21:12:09 10° SW 21:16:47 51° SSE 21:21:20 10° ENE night (unlit)
25 Jun - 22:54:10 10° WSW 22:58:09 27° NW 23:02:03 10° N night (unlit)
26 Jun - 12:59:31 10° NNE 13:02:08 15° NE 13:04:48 10° E daylight
26 Jun - 14:38:32 10° NW 14:43:11 83° SW 14:47:55 10° SE daylight
26 Jun - 16:21:34 10° WSW 16:25:18 23° SSW 16:29:04 10° SSE daylight
26 Jun - 18:05:29 10° SW 18:08:13 15° S 18:10:58 10° SE visible
26 Jun - 19:47:12 10° SW 19:51:07 25° SSE 19:54:59 10° ESE visible
26 Jun - 21:28:22 10° SW 21:33:08 86° NW 21:37:48 10° NE night (unlit)
26 Jun - 23:12:05 10° WNW 23:14:06 13° NW 23:16:06 10° NNW night (unlit)
27 Jun - 13:14:03 10° NNW 13:18:08 32° NE 13:22:16 10° ESE daylight
27 Jun - 14:55:06 10° WNW 14:59:34 45° SSW 15:04:07 10° SE daylight
27 Jun - 16:38:53 10° SW 16:42:03 17° SSW 16:45:15 10° SSE daylight
27 Jun - 18:22:05 10° SSW 18:25:05 16° S 18:28:07 10° SE visible
27 Jun - 20:03:17 10° SW 20:07:43 37° SSE 20:12:05 10° E visible
27 Jun - 21:44:52 10° WSW 21:49:19 42° NW 21:53:42 10° NNE night (unlit)
28 Jun - 13:29:41 10° NW 13:34:15 66° NE 13:38:55 10° ESE daylight
28 Jun - 15:12:04 10° W 15:16:07 28° SSW 15:20:13 10° SE daylight
28 Jun - 16:56:07 10° SW 16:58:55 15° S 17:01:43 10° SSE daylight
28 Jun - 18:38:21 10° SSW 18:41:54 20° SSE 18:45:27 10° ESE visible
28 Jun - 20:19:26 10° SW 20:24:10 65° SE 20:28:49 10° ENE visible
28 Jun - 22:01:55 10° W 22:05:22 20° NW 22:08:47 10° N night (unlit)
29 Jun - 12:05:58 10° N 12:09:20 20° NE 12:12:46 10° E daylight
29 Jun - 13:45:57 10° WNW 13:50:33 64° SW 13:55:14 10° SE daylight
29 Jun - 15:29:20 10° WSW 15:32:49 20° SSW 15:36:19 10° SSE daylight
29 Jun - 17:13:00 10° SSW 17:15:48 15° S 17:18:36 10° SE daylight
29 Jun - 18:54:27 10° SW 18:58:35 29° SSE 19:02:42 10° E visible
29 Jun - 20:35:44 10° WSW 20:40:27 65° NW 20:45:05 10° NE visible
30 Jun - 12:21:04 10° NNW 12:25:23 42° NE 12:29:48 10° ESE daylight
30 Jun - 14:02:42 10° W 14:06:59 36° SSW 14:11:22 10° SE daylight
30 Jun - 15:46:39 10° SW 15:49:37 16° S 15:52:36 10° SSE daylight
30 Jun - 17:29:26 10° SSW 17:32:39 18° SSE 17:35:51 10° SE visible
30 Jun - 19:10:33 10° SW 19:15:08 46° SSE 19:19:40 10° ENE visible
30 Jun - 20:52:24 10° WSW 20:56:34 31° NW 21:00:41 10° NNE visible
01 Jul - 10:58:38 10° NNE 11:00:36 13° NE 11:02:35 10° ENE daylight
01 Jul - 12:36:59 10° NW 12:41:34 87° NE 12:46:16 10° SE daylight
01 Jul - 14:19:48 10° WSW 14:23:36 24° SSW 14:27:27 10° SSE daylight
01 Jul - 16:03:46 10° SW 16:06:29 15° S 16:09:13 10° SE daylight
01 Jul - 17:45:36 10° SSW 17:49:24 23° SSE 17:53:12 10° ESE visible
01 Jul - 19:26:44 10° SW 19:31:31 84° SE 19:36:12 10° NE visible
01 Jul - 21:09:54 10° W 21:12:33 15° NW 21:15:12 10° NNW night (unlit)
02 Jul - 11:12:43 10° N 11:16:34 27° NE 11:20:28 10° ESE daylight
02 Jul - 12:53:27 10° WNW 12:57:55 50° SSW 13:02:29 10° SE daylight
02 Jul - 14:37:06 10° WSW 14:40:20 18° SSW 14:43:36 10° SSE daylight
02 Jul - 16:20:27 10° SSW 16:23:22 16° S 16:26:17 10° SE daylight
02 Jul - 18:01:42 10° SW 18:06:02 34° SSE 18:10:20 10° E visible
02 Jul - 19:43:09 10° WSW 19:47:43 48° NW 19:52:13 10° NNE visible
